Torna al catalogo

STARLINK-34114

AttivoComunicazioniVLEO
NORAD 63905·PAYLOAD·🇺🇸 United States

Lanciato May 10, 2025 da Cape Canaveral Space Force Station

Loading…

Prossimi Passaggi (prossime 24 ore)

TLE

AggiornatoSource: CelesTrak SupGP

Epoca: Sep 14, 2026, 20:33 UTC

1 63905C 25095R   26257.85673611  .00013310  00000+0  48204-3 0  2578
2 63905  43.0021 188.2750 0001300 261.4723 117.8072 15.27574535    16

Traccia STARLINK-34114 in tempo reale con AllMySat

Download on the App Store